CW6872 Weather Reports


time (UTC)temp
C
wind
direction
speed
KPH
gust
KPH
rain 1hr
cm
rain 24hr
cm
rain mn
cm
humidity
%
barometer
mb
20260503215016 15 277 4.8 22.5 0.00 0.00 0.00 27 1010.7
20260503214540 15 311 4.8 19.3 0.00 0.00 0.00 28 1010.6
20260503214019 16 14 3.2 17.7 0.00 0.00 0.00 28 1010.6
20260503213518 15 0 1.6 25.7 0.00 0.00 0.00 30 1010.5
20260503213039 15 284 4.8 25.7 0.00 0.00 0.00 27 1010.6
20260503212521 16 263 6.4 25.7 0.00 0.00 0.00 27 1010.6
20260503212018 15 0 3.2 19.3 0.00 0.00 0.00 27 1010.3
20260503211542 15 262 1.6 22.5 0.00 0.00 0.00 29 1010.4
20260503211020 15 5 1.6 30.6 0.00 0.00 0.00 29 1010.5
20260503210517 15 5 8.0 30.6 0.00 0.00 0.00 27 1010.7
20260503210039 15 276 4.8 27.4 0.00 0.00 0.00 27 1010.7
20260503205518 15 360 6.4 25.7 0.00 0.00 0.00 27 1010.6
20260503205017 15 296 4.8 24.1 0.00 0.00 0.00 30 1010.5
20260503204537 15 306 8.0 24.1 0.00 0.00 0.00 27 1010.5
20260503204019 15 321 6.4 24.1 0.00 0.00 0.00 29 1010.6
20260503203524 15 272 8.0 24.1 0.00 0.00 0.00 30 1010.7
20260503203038 15 314 6.4 24.1 0.00 0.00 0.00 30 1010.7
20260503202519 15 9 4.8 19.3 0.00 0.00 0.00 30 1010.6
20260503202016 15 321 4.8 20.9 0.00 0.00 0.00 30 1010.8
20260503201534 15 304 0.0 20.9 0.00 0.00 0.00 29 1010.8
20260503201052 15 294 6.4 25.7 0.00 0.00 0.00 28 1010.8
20260503200520 15 298 4.8 25.7 0.00 0.00 0.00 30 1011.0
20260503200033 14 321 8.0 25.7 0.00 0.00 0.00 30 1010.9
20260503195516 14 65 4.8 20.9 0.00 0.00 0.00 31 1010.9
20260503195020 14 306 4.8 20.9 0.00 0.00 0.00 30 1010.7
20260503194540 15 19 4.8 20.9 0.00 0.00 0.00 30 1011.0
20260503194020 15 30 4.8 25.7 0.00 0.00 0.00 30 1011.0
20260503193518 15 317 4.8 30.6 0.00 0.00 0.00 29 1011.0
20260503193044 15 318 12.9 30.6 0.00 0.00 0.00 29 1010.9
20260503192519 15 288 4.8 20.9 0.00 0.00 0.00 29 1011.0
20260503192018 15 0 3.2 24.1 0.00 0.00 0.00 29 1011.1
20260503191602 14 275 3.2 24.1 0.00 0.00 0.00 31 1011.3
20260503191018 14 290 8.0 24.1 0.00 0.00 0.00 28 1011.1
20260503190516 14 276 4.8 35.4 0.00 0.00 0.00 30 1011.2
20260503190036 14 314 6.4 35.4 0.00 0.00 0.00 30 1011.2
20260503185521 13 325 6.4 35.4 0.00 0.00 0.00 31 1011.3
20260503185017 14 344 3.2 19.3 0.00 0.00 0.00 30 1011.4
20260503184540 14 309 4.8 24.1 0.00 0.00 0.00 32 1011.3
20260503184017 14 329 6.4 24.1 0.00 0.00 0.00 29 1011.5
20260503183520 13 338 6.4 20.9 0.00 0.00 0.00 32 1011.4
20260503183038 13 317 3.2 22.5 0.00 0.00 0.00 36 1011.5
20260503182516 13 344 3.2 22.5 0.00 0.00 0.00 33 1011.6
20260503182017 12 271 8.0 22.5 0.00 0.00 0.00 32 1011.6
20260503181547 12 0 1.6 17.7 0.00 0.00 0.00 33 1011.7
20260503181017 13 0 1.6 22.5 0.00 0.00 0.00 33 1011.8
20260503180519 12 329 4.8 25.7 0.00 0.00 0.00 34 1011.7
20260503180039 12 290 4.8 25.7 0.00 0.00 0.00 35 1011.7
20260503175517 12 21 3.2 22.5 0.00 0.00 0.00 34 1011.7
20260503175019 12 0 4.8 25.7 0.00 0.00 0.00 33 1011.7
20260503174544 12 360 4.8 25.7 0.00 0.00 0.00 36 1011.8
20260503174017 12 284 3.2 19.3 0.00 0.00 0.00 34 1011.8
20260503173517 12 321 1.6 20.9 0.00 0.00 0.00 37 1011.8
20260503173030 12 340 0.0 20.9 0.00 0.00 0.00 39 1012.0
20260503172516 12 0 3.2 19.3 0.00 0.00 0.00 36 1011.9
20260503172016 12 319 6.4 22.5 0.00 0.00 0.00 37 1012.0
20260503171536 11 344 3.2 24.1 0.00 0.00 0.00 39 1012.0
20260503171017 11 304 4.8 24.1 0.00 0.00 0.00 37 1012.1
20260503170519 12 271 8.0 24.1 0.00 0.00 0.00 38 1012.2
20260503150518 10 33 1.6 22.5 0.00 0.00 0.00 44 1012.7
20260503131017 9 5 6.4 22.5 0.00 0.00 0.00 48 1012.5
20260503130517 9 11 3.2 12.9 0.00 0.00 0.00 50 1012.5
20260503110516 6 0 0.0 16.1 0.00 0.00 0.00 58 1012.2
20260503081540 7 0 0.0 4.8 0.00 0.00 0.00 56 1010.5
20260503081015 7 0 0.0 4.8 0.00 0.00 0.00 56 1010.5
20260503080516 7 0 0.0 1.6 0.00 0.00 0.00 55 1010.6
20260503072515 7 333 0.0 12.9 0.00 0.00 0.00 53 1010.5
20260503072017 7 0 0.0 12.9 0.00 0.00 0.00 53 1010.5
20260503071532 7 0 0.0 4.8 0.00 0.00 0.00 53 1010.5
20260503071017 7 0 0.0 4.8 0.00 0.00 0.00 53 1010.3
20260503070518 7 0 0.0 1.6 0.00 0.00 0.00 54 1010.5
20260503055020 8 0 0.0 0.0 0.00 0.00 0.00 50 1010.7
20260503054546 8 0 0.0 1.6 0.00 0.00 0.00 49 1010.9
20260503054017 8 0 0.0 4.8 0.00 0.00 0.00 48 1010.8
20260503053517 8 0 0.0 4.8 0.00 0.00 0.00 47 1010.8
20260503053031 8 0 0.0 12.9 0.00 0.00 0.00 48 1010.7
20260503052518 9 0 0.0 12.9 0.00 0.00 0.00 47 1010.7
20260503052019 9 0 0.0 9.7 0.00 0.00 0.00 47 1010.8
20260503051536 9 0 0.0 9.7 0.00 0.00 0.00 46 1010.8
20260503051017 9 27 0.0 9.7 0.00 0.00 0.00 46 1010.9
20260503050516 9 0 0.0 4.8 0.00 0.00 0.00 47 1010.8
20260503050035 9 352 0.0 4.8 0.00 0.00 0.00 46 1010.9
20260503045519 9 0 0.0 4.8 0.00 0.00 0.00 47 1011.0
20260503045017 9 0 0.0 9.7 0.00 0.00 0.00 46 1010.9
20260503044542 9 9 0.0 11.3 0.00 0.00 0.00 46 1011.0
20260503044016 9 0 0.0 11.3 0.00 0.00 0.00 46 1010.9
20260503043517 9 0 0.0 6.4 0.00 0.00 0.00 46 1011.0
20260503043045 9 350 0.0 4.8 0.00 0.00 0.00 46 1011.0
20260503042519 9 0 0.0 3.2 0.00 0.00 0.00 46 1011.2
20260503042018 9 352 0.0 3.2 0.00 0.00 0.00 46 1011.2
20260503041536 9 0 0.0 3.2 0.00 0.00 0.00 45 1011.1
20260503041020 9 0 0.0 9.7 0.00 0.00 0.00 46 1011.2
20260503040521 9 0 0.0 9.7 0.00 0.00 0.00 45 1011.2
20260503040038 9 347 0.0 3.2 0.00 0.00 0.00 45 1011.2
20260503035521 9 0 0.0 3.2 0.00 0.00 0.00 45 1011.2
20260503035020 9 0 0.0 3.2 0.00 0.00 0.00 44 1011.1
20260503034536 9 0 0.0 3.2 0.00 0.00 0.00 45 1011.2
20260503034018 9 0 0.0 4.8 0.00 0.00 0.00 45 1011.2
20260503033517 9 0 0.0 4.8 0.00 0.00 0.00 46 1011.1
20260503033041 9 0 0.0 4.8 0.00 0.00 0.00 45 1011.2
20260503032519 9 0 0.0 6.4 0.00 0.00 0.00 46 1011.1
20260503032019 9 0 0.0 6.4 0.00 0.00 0.00 45 1011.1
20260503031536 10 0 0.0 1.6 0.00 0.00 0.00 45 1011.1
20260503031019 10 0 0.0 1.6 0.00 0.00 0.00 45 1011.3
20260503030519 10 0 0.0 1.6 0.00 0.00 0.00 44 1011.3
20260503030037 10 0 0.0 1.6 0.00 0.00 0.00 44 1011.3
20260503025519 10 0 0.0 6.4 0.00 0.00 0.00 44 1011.3
20260503025018 10 0 0.0 6.4 0.00 0.00 0.00 44 1011.2
20260503024537 10 0 0.0 6.4 0.00 0.00 0.00 44 1011.1
20260503024019 10 0 0.0 6.4 0.00 0.00 0.00 42 1011.2
20260503023519 10 0 0.0 6.4 0.00 0.00 0.00 42 1011.2
20260503023047 10 0 0.0 6.4 0.00 0.00 0.00 42 1011.3
20260503022519 10 0 0.0 6.4 0.00 0.00 0.00 42 1011.2
20260503022019 10 0 0.0 4.8 0.00 0.00 0.00 42 1011.2
20260503021535 11 0 0.0 6.4 0.00 0.00 0.00 41 1011.3
20260503021019 11 0 0.0 6.4 0.00 0.00 0.00 42 1011.3
20260503020519 11 0 0.0 6.4 0.00 0.00 0.00 41 1011.2
20260503020036 11 0 0.0 6.4 0.00 0.00 0.00 42 1011.2
20260503015521 11 0 0.0 6.4 0.00 0.00 0.00 41 1011.2
20260503015018 11 0 0.0 4.8 0.00 0.00 0.00 42 1011.2
20260503014536 11 0 0.0 3.2 0.00 0.00 0.00 41 1011.2
20260503014019 11 0 0.0 3.2 0.00 0.00 0.00 42 1011.2
20260503013519 11 0 0.0 4.8 0.00 0.00 0.00 41 1011.3
20260503013040 11 0 0.0 4.8 0.00 0.00 0.00 42 1011.3
20260503012520 11 0 0.0 3.2 0.00 0.00 0.00 42 1011.3
20260503012019 11 0 0.0 3.2 0.00 0.00 0.00 42 1011.2
20260503011531 11 0 0.0 1.6 0.00 0.00 0.00 43 1011.2
20260503011019 11 0 0.0 1.6 0.00 0.00 0.00 42 1011.2
20260503010520 11 0 0.0 0.0 0.00 0.00 0.00 42 1011.1
20260503010033 11 0 0.0 0.0 0.00 0.00 0.00 42 1011.0
20260503005517 11 0 0.0 1.6 0.00 0.00 0.00 42 1010.9
20260503005018 11 0 0.0 1.6 0.00 0.00 0.00 42 1010.8
20260503004537 11 0 0.0 1.6 0.00 0.00 0.00 42 1010.7
20260503004021 11 0 0.0 1.6 0.00 0.00 0.00 42 1010.5
20260503003518 11 0 0.0 1.6 0.00 0.00 0.00 41 1010.6
20260503003044 11 0 0.0 1.6 0.00 0.00 0.00 41 1010.6
20260503002518 12 0 0.0 1.6 0.00 0.00 0.00 41 1010.5
20260503002017 12 0 0.0 1.6 0.00 0.00 0.00 41 1010.4
20260503001548 12 0 0.0 1.6 0.00 0.00 0.00 42 1010.3
20260503001020 12 0 0.0 1.6 0.00 0.00 0.00 40 1010.4
20260503000523 12 0 0.0 1.6 0.00 0.00 0.00 40 1010.5
20260503000044 12 0 0.0 3.2 0.00 0.00 0.00 40 1010.5
20260502235519 12 0 0.0 3.2 0.00 0.00 0.00 39 1010.3
20260502235020 12 0 0.0 3.2 0.00 0.00 0.00 40 1010.2
20260502234548 12 0 0.0 3.2 0.00 0.00 0.00 39 1010.3
20260502234019 12 0 0.0 0.0 0.00 0.00 0.00 40 1010.2
20260502233519 13 0 0.0 3.2 0.00 0.00 0.00 40 1010.3
20260502233041 13 0 0.0 3.2 0.00 0.00 0.00 38 1010.3
20260502232522 13 338 0.0 8.0 0.00 0.00 0.00 39 1010.4
20260502232018 13 0 0.0 12.9 0.00 0.00 0.00 38 1010.3
20260502231535 13 352 0.0 12.9 0.00 0.00 0.00 38 1010.3
20260502231018 13 336 0.0 8.0 0.00 0.00 0.00 41 1010.3
20260502230518 13 0 0.0 8.0 0.00 0.00 0.00 38 1010.2
20260502230037 13 329 0.0 8.0 0.00 0.00 0.00 38 1010.3
20260502225517 13 0 0.0 6.4 0.00 0.00 0.00 38 1010.3
20260502225017 13 0 0.0 6.4 0.00 0.00 0.00 38 1010.2
20260502224543 13 0 0.0 4.8 0.00 0.00 0.00 38 1010.2
20260502224018 13 0 0.0 6.4 0.00 0.00 0.00 38 1010.1
20260502223521 13 0 0.0 9.7 0.00 0.00 0.00 37 1010.0
20260502223040 13 0 0.0 11.3 0.00 0.00 0.00 37 1010.0
20260502222516 13 5 1.6 11.3 0.00 0.00 0.00 36 1009.9
20260502222019 13 10 0.0 12.9 0.00 0.00 0.00 36 1009.9
20260502221535 14 0 0.0 14.5 0.00 0.00 0.00 35 1010.0
20260502221019 14 285 1.6 14.5 0.00 0.00 0.00 35 1010.1
20260502220519 15 0 0.0 8.0 0.00 0.00 0.00 36 1010.1
20260502220035 15 336 0.0 8.0 0.00 0.00 0.00 35 1010.0
20260502215517 15 0 0.0 6.4 0.00 0.00 0.00 34 1010.1